Content
SEND FEEDBACK

Daily
Averages
Monthly
Summary
United States of America

PINEDALE, ARIZONA


Home > North America > United States > Arizona
Elevation: 6510 feet     Latitude: 34 18N     Longitude: 110 15W

WEATHER
 
SELECT A DAY
Number of Records: 257,846;   Date Range: 1/1/95 - 9/21/14
 
SHARE

PRINT THIS DATA

[ ← Previous Day ]
WEATHER ALMANAC - JANUARY 31, 2013
[ Next Day → ]
[ °C ]   °F
Weather ElementAverageHighLow
Temperature32 °F46.4 °F (3:15 pm)19.4 °F (6:55 am)
Dewpoint21.2 °F24.8 °F (9:15 am)15.8 °F (6:55 am)
Humidity66.7 %93 % (7:55 am)39 % (4:15 pm)
Barometer30.28 in30.31 in (11:55 am)30.26 in (12:35 am)
Wind Speed3.6 mph10.4 mph (11:15 am)
Weather ElementAverage
Visibility9.9 mi
Wind DirectionNE (43.9 °)

Weather ElementTotal
Precipitation---
Heating Degree Days32.1 (Base 65)
Averaged from 71 records on January 31, 2013
WEATHER CONDITIONS BREAKOUT
WIND DIRECTION BREAKOUT
WEATHER BY HOUR - JANUARY 31, 2013
[ °C ]   °F
Local TimeTemperatureDewpointHumidityBarometerVisibilityWind DirectionWind SpeedGust SpeedPrecipitationEventsConditions
12:35 AM28.4 °F19.4 °F69 %30.26 in10.0 miEast (80°)4.6 mphClear
12:55 AM28.4 °F19.4 °F69 %30.26 in10.0 miEast (80°)4.6 mphClear
1:15 AM28.4 °F19.4 °F69 %30.27 in10.0 miEast (90°)5.8 mphClear
1:35 AM28.4 °F19.4 °F69 %30.27 in10.0 miEast (80°)5.8 mphClear
1:55 AM26.6 °F19.4 °F74 %30.28 in10.0 miEast (90°)5.8 mphClear
2:15 AM28.4 °F19.4 °F69 %30.28 in10.0 miEast (90°)5.8 mphClear
2:35 AM28.4 °F19.4 °F69 %30.28 in10.0 miEast (90°)3.5 mphClear
2:55 AM24.8 °F19.4 °F80 %30.28 in10.0 miCalmClear
3:15 AM24.8 °F19.4 °F80 %30.28 in10.0 miCalmClear
3:35 AM26.6 °F19.4 °F74 %30.27 in10.0 miCalmClear
3:55 AM24.8 °F19.4 °F80 %30.27 in10.0 miCalmClear
4:15 AM23.0 °F19.4 °F86 %30.27 in10.0 miCalmClear
4:35 AM21.2 °F17.6 °F86 %30.28 in10.0 miCalmClear
4:55 AM24.8 °F19.4 °F80 %30.27 in10.0 miCalmClear
5:15 AM23.0 °F17.6 °F80 %30.27 in10.0 miCalmClear
5:35 AM23.0 °F19.4 °F86 %30.27 in10.0 miCalm
5:55 AM23.0 °F17.6 °F80 %30.28 in10.0 miEast (100°)4.6 mph
6:15 AM23.0 °F17.6 °F80 %30.27 in10.0 miCalmClear
6:35 AM23.0 °F17.6 °F80 %30.27 in10.0 miCalmClear
6:55 AM19.4 °F15.8 °F86 %30.27 in10.0 miCalmClear
7:15 AM23.0 °F17.6 °F80 %30.28 in10.0 miCalmClear
7:35 AM23.0 °F17.6 °F80 %30.29 in6.0 miCalmHaze
7:55 AM19.4 °F17.6 °F93 %30.30 in10.0 miCalmClear
8:15 AM24.8 °F19.4 °F80 %30.30 in10.0 miCalmClear
8:35 AM26.6 °F23.0 °F86 %30.30 in10.0 miCalmClear
8:55 AM28.4 °F23.0 °F80 %30.30 in10.0 miCalmClear
9:15 AM32.0 °F24.8 °F75 %30.30 in10.0 miNorth (10°)3.5 mphClear
9:35 AM33.8 °F23.0 °F65 %30.30 in10.0 miNNE (20°)6.9 mphClear
9:55 AM35.6 °F24.8 °F65 %30.30 in10.0 miNE (40°)5.8 mphClear
10:15 AM37.4 °F24.8 °F60 %30.30 in10.0 miNorth (10°)9.2 mphClear
10:35 AM37.4 °F24.8 °F60 %30.30 in10.0 miNorth (10°)6.9 mphClear
10:55 AM39.2 °F24.8 °F56 %30.30 in10.0 miNNE (20°)8.1 mphClear
11:15 AM39.2 °F24.8 °F56 %30.30 in10.0 miNorth (10°)10.4 mphClear
11:35 AM39.2 °F23.0 °F52 %30.30 in10.0 miNorth (10°)9.2 mphClear
11:55 AM41.0 °F23.0 °F49 %30.31 in10.0 miNorth (10°)8.1 mphClear
12:15 PM41.0 °F23.0 °F49 %30.31 in10.0 miNorth (350°)5.8 mphClear
12:35 PM41.0 °F23.0 °F49 %30.30 in10.0 miNNE (20°)5.8 mphClear
12:55 PM42.8 °F23.0 °F46 %30.30 in10.0 miNNE (30°)5.8 mphClear
1:15 PM42.8 °F23.0 °F46 %30.29 in10.0 miNNE (30°)6.9 mphClear
1:35 PM44.6 °F23.0 °F43 %30.29 in10.0 miNorth (350°)5.8 mphClear
1:55 PM44.6 °F23.0 °F43 %30.28 in10.0 miNE (40°)3.5 mphClear
2:15 PM44.6 °F23.0 °F43 %30.28 in10.0 miNorth (10°)6.9 mphClear
2:35 PM44.6 °F23.0 °F43 %30.27 in10.0 miNorth (350°)6.9 mphClear
2:55 PM44.6 °F23.0 °F43 %30.27 in10.0 miNorth (10°)5.8 mphClear
3:15 PM46.4 °F23.0 °F40 %30.27 in10.0 miNorth (360°)9.2 mphClear
3:35 PM44.6 °F23.0 °F43 %30.27 in10.0 miNorth (10°)8.1 mphClear
3:55 PM44.6 °F23.0 °F43 %30.27 in10.0 miNNE (20°)8.1 mphClear
4:15 PM44.6 °F21.2 °F39 %30.27 in10.0 miNorth (10°)9.2 mphClear
4:35 PM44.6 °F21.2 °F39 %30.27 in10.0 miNorth (360°)9.2 mphClear
4:55 PM42.8 °F23.0 °F46 %30.26 in10.0 miNorth (10°)8.1 mphClear
5:15 PM41.0 °F23.0 °F49 %30.27 in10.0 miNorth (10°)5.8 mphClear
5:35 PM39.2 °F23.0 °F52 %30.27 in10.0 miNorth (10°)6.9 mphClear
5:55 PM37.4 °F23.0 °F56 %30.26 in10.0 miNNE (20°)5.8 mphClear
6:15 PM33.8 °F23.0 °F65 %30.26 in10.0 miNNE (20°)5.8 mphClear
6:35 PM32.0 °F21.2 °F64 %30.26 in10.0 miNE (50°)4.6 mphClear
6:55 PM32.0 °F23.0 °F69 %30.27 in10.0 miEast (80°)3.5 mphClear
7:15 PM32.0 °F21.2 °F64 %30.27 in10.0 miNE (50°)3.5 mphClear
7:35 PM32.0 °F23.0 °F69 %30.27 in10.0 miCalmClear
7:55 PM30.2 °F21.2 °F69 %30.28 in10.0 miEast (80°)4.6 mphClear
8:15 PM30.2 °F21.2 °F69 %30.28 in10.0 miCalmClear
8:35 PM30.2 °F21.2 °F69 %30.29 in10.0 miCalmClear
8:55 PM30.2 °F21.2 °F69 %30.29 in10.0 miCalmClear
9:15 PM28.4 °F21.2 °F74 %30.29 in10.0 miCalmClear
9:35 PM26.6 °F21.2 °F80 %30.28 in10.0 miCalmClear
9:55 PM26.6 °F21.2 °F80 %30.28 in10.0 miCalmClear
10:15 PM24.8 °F21.2 °F86 %30.28 in10.0 miCalmClear
10:35 PM24.8 °F21.2 °F86 %30.28 in10.0 miCalmClear
10:55 PM26.6 °F23.0 °F86 %30.27 in10.0 miCalmClear
11:15 PM26.6 °F19.4 °F74 %30.27 in10.0 miCalmClear
11:35 PM24.8 °F21.2 °F86 %30.27 in10.0 miCalmClear
11:55 PM24.8 °F19.4 °F80 %30.28 in10.0 miCalmClear
Hourly data recorded from KSOW, located miles away from Pinedale, Arizona







STORIES FROM OUR PARTNERS